Showing default

GAOFEN 1-02, 43259

Orbit data source: Space-Track

GAOFEN 1-02, 43259 is a payload satellite owned by GGKGJ (CN) in SSO that was launched on Sat, 31 Mar 2018 UTC via a CHANG ZHENG 4C launch vehicle from the Taiyaun Space Center, China (TSC). Payloads include a variety of satellites, spacecraft, and rockets equipped with specific instruments for various scientific and technological missions. These include communications satellites like Starlink; space stations such as the ISS; scientific satellites like the Hubble; Earth observation satellites from companies like Planet Labs, Umbra, and HawkEye 360; GPS; miniature CubeSats for education and research; and military/defense satellites.

Loading next visibility...
GAOFEN 1-02 details
Identifier
43259, 2018-031A
Orbit
SSO
Last TLE update7 hours ago
Origin
Flag of CNGGKGJ (CN / PRC)
ManufacturerDFH
MissionOperational Civil Imaging
Bus & MotorCAST-2000, AOCS
Mass805 kg wet, ~700 kg dry
Launch date (UTC)
2018-03-31 (7 years ago)
Launch vehicle
CHANG ZHENG 4C
Launch site
Taiyaun Space Center, China (TSC)
Object type
Payload
Rocket body
Debris
Shape & HBRBox + 2 Pan, 4 m
Radar Cross Section4.991 m², Large (>1 m²)

Expand to show TLE details & history

TLE from 7 hours ago
0 GAOFEN 1-02
1 43259U 18031A   24361.15360744  .00002384  00000-0  34824-3 0  9993
2 43259  97.7987  62.3827 0004257 298.9258  61.1525 14.76615729363304
Epoch: 2024-12-26T03:41Z
Definitive object data (Epoch: 2024-12-26T03:41:11.682Z)
Latitude-0.00006°
Longitude-88.05305°
Altitude641.606 km
Speed7.538 km/s
True Right ascension04h 09m 31s
True Declination0° 00' 00"
Sunlit
Object was in full shadow at TLE epoch
Visualization TLE readout
Latitude-15.80441°
Longitude90.03461°
Altitude647.043 km
Speed7.533 km/s
Apparent Right ascension18h 33m 38s
Apparent Declination-37° 00' 27"
Sunlit
Object is in daylight
Visualization observer readout
Local Sidereal Time10:25:51
Azimuth105.706° ESE
Elevation-45.259°
Doppler factor1
Orbital elements
Apogee altitude640.054 km
Perigee altitude634.082 km
Semi-major axis7,015.205 km
Eccentricity0.0004257
Inclination97.7987°
RAAN62.3827°
Arg. of periapsis298.9258°
True anomaly61.19524°
Mean anomaly61.1525°
Eccentric anomaly61.17387°
Mean motion3.69388 °/min
BSTAR0.00034824
Orbital period97.46 mins
Loading maneuver chart data...
Loading historical data...
Loading historical data...
Loading historical data...
Loading historical data...
Loading historical data...
Loading historical data...
Loading historical data...

GAOFEN 1-02 Visibility forecast

Observer location: undefined°, undefined

Span
Click to sort rows by Start time (UTC) header in descending order
Start Az.
Max El. time (UTC)
Max El. Az.
Max El.
End time (UTC)
End Az.
8 mins2024-12-26 17:15:33.739Z10.238° NNE2024-12-26 17:19:33.739Z298.871° NW44.693°2024-12-26 17:23:33.739Z197.124° SSW
7 mins2024-12-27 04:12:33.739Z159.089° S2024-12-27 04:15:33.739Z117.004° SE43.358°2024-12-27 04:19:33.739Z351.98° N
|